This demonstration page uses our WeatherBlox Daily Observations layout. Learn more.

Left ArrowRight Arrow

36.19886, -115.1175

Hourly Observations for March 24, 2017

Temp ( °F °C ) Dew Point ( °F °C ) Humidity (%) Winds ( mph kmh ) Pressure ( in mb ) Visibility ( mi km ) Precip ( " mm )
12:53 am 00:53 Clear 56 13.3 37 2.8 49 49 N N/A 30.14 1021 10 16 N/A
1:53 am 01:53 Clear 54 12.2 37 2.8 53 53 N N/A 30.15 1021 10 16 N/A
2:53 am 02:53 Clear 52 11.1 37 2.8 57 57 WNW 3 6 30.16 1021 10 16 N/A
3:53 am 03:53 Clear 53 11.7 37 2.8 55 55 W 5 7 30.16 1021 10 16 N/A
4:53 am 04:53 Clear 50 10 32 undefined 50 50 NNW 5 7 30.17 1022 10 16 N/A
5:53 am 05:53 Clear 49 9.4 32 undefined 52 52 N 6 9 30.19 1023 10 16 N/A
6:53 am 06:53 Sunny 48 8.9 29 -1.7 48 48 NNW 6 9 30.21 1023 10 16 N/A
7:53 am 07:53 Sunny 53 11.7 35 1.7 51 51 N N/A 30.22 1024 10 16 N/A
8:53 am 08:53 Sunny 57 13.9 34 1.1 42 42 ESE 3 6 30.24 1024 10 16 N/A
9:53 am 09:53 Sunny 60 15.6 28 -2.2 30 30 SE 8 13 30.24 1024 10 16 N/A
10:53 am 10:53 Sunny 63 17.2 27 -2.8 26 26 E 6 9 30.24 1024 10 16 N/A
11:53 am 11:53 Sunny 66 18.9 28 -2.2 24 24 VRB 6 9 30.22 1024 10 16 N/A
12:53 pm 12:53 Sunny 68 20 30 -1.1 24 24 ESE 9 15 30.19 1022 10 16 N/A
1:53 pm 13:53 Sunny 70 21.1 29 -1.7 22 22 SE 12 19 30.15 1021 10 16 N/A
2:53 pm 14:53 Sunny 73 22.8 29 -1.7 19 19 ESE 10 17 30.11 1020 10 16 N/A
3:53 pm 15:53 Sunny 74 23.3 32 undefined 21 21 ESE 10 17 30.07 1018 10 16 N/A
4:53 pm 16:53 Sunny 74 23.3 30 -1.1 20 20 ESE 14 22 30.04 1017 10 16 N/A
5:53 pm 17:53 Sunny 75 23.9 26 -3.3 16 16 ESE 13 20 30.02 1017 10 16 N/A
6:53 pm 18:53 Sunny 72 22.2 25 -3.9 17 17 SSE 16 26 30.02 1017 10 16 N/A
7:53 pm 19:53 Clear 70 21.1 26 -3.3 19 19 SE 8 13 30.02 1017 10 16 N/A
8:53 pm 20:53 Clear 71 21.7 27 -2.8 19 19 SW 10 17 30.03 1017 10 16 N/A
9:53 pm 21:53 Clear 70 21.1 24 -4.4 18 18 SSW 7 11 30.03 1017 10 16 N/A
10:53 pm 22:53 Clear 69 20.6 20 -6.7 15 15 SSW 14 22 30.02 1017 10 16 N/A
11:53 pm 23:53 Clear 68 20 21 -6.1 17 17 SSW 14 22 30.01 1016 10 16 N/A

Powered by AerisWeather